Voltar ao catálogo

COSMOS 886 DEB

AtivoUNKNOWN
NORAD 14503·DEBRIS·🇷🇺 Russia

Lançado Dec 27, 1976 de Baikonur Cosmodrome

Loading…

Próximas Passagens (próximas 24 horas)

TLE

AtualizadoSource: Space-Track

Época: Sep 14, 2026, 06:04 UTC

1 14503U 76126BQ  26257.25337375 -.00000088  00000-0 -45898-4 0  9998
2 14503  65.8547 209.8815 1004347 208.5126 145.7237 12.32300815584388

Acompanhe COSMOS 886 DEB em tempo real com AllMySat

Download on the App Store